When you browse on this site, cookies collect data to enhance your experience and personalize the content and advertising you see.
Visit our Privacy Policy to learn more. By continuing to use the site, you agree to this use of cookies and data.

Previsão horária em Hnyuh

Hoje, 4 Julho, Sábado

Tempo Temperatura Precipitação Vento Pressão Humidade
00:00 +11°C° 0 mm 1 m/s 594 mmHg 84%
01:00 +10°C° 0 mm 1 m/s 593 mmHg 84%
02:00 +10°C° 0 mm 1 m/s 593 mmHg 83%
03:00 +10°C° 0 mm 1 m/s 593 mmHg 82%
04:00 +11°C° 0 mm 1 m/s 594 mmHg 80%
05:00 +13°C° 0 mm 1 m/s 594 mmHg 78%
06:00 +14°C° 0 mm 1 m/s 595 mmHg 77%
07:00 +15°C° 0 mm 1 m/s 596 mmHg 71%
08:00 +18°C° 0 mm 1 m/s 597 mmHg 65%
09:00 +19°C° 0 mm 2 m/s 597 mmHg 61%
10:00 +19°C° 0.2 mm 2 m/s 597 mmHg 62%
11:00 +19°C° 0.2 mm 2 m/s 597 mmHg 64%
12:00 +19°C° 0.2 mm 3 m/s 597 mmHg 66%
13:00 +19°C° 0.7 mm 3 m/s 596 mmHg 65%
14:00 +19°C° 0.7 mm 2 m/s 596 mmHg 64%
15:00 +19°C° 0.7 mm 2 m/s 596 mmHg 63%
16:00 +19°C° 0.4 mm 2 m/s 595 mmHg 64%
17:00 +18°C° 0.4 mm 2 m/s 595 mmHg 66%
18:00 +17°C° 0.4 mm 2 m/s 595 mmHg 67%
19:00 +16°C° 0 mm 1 m/s 594 mmHg 70%
20:00 +14°C° 0 mm 1 m/s 594 mmHg 73%
21:00 +12°C° 0 mm 1 m/s 593 mmHg 76%
22:00 +12°C° 0 mm 1 m/s 593 mmHg 76%
23:00 +11°C° 0 mm 1 m/s 592 mmHg 76%

Amanhã, 5 Julho, Domingo

Tempo Temperatura Precipitação Vento Pressão Humidade
00:00 +11°C° 0 mm 1 m/s 592 mmHg 76%
01:00 +11°C° 0 mm 1 m/s 592 mmHg 76%
02:00 +11°C° 0 mm 1 m/s 592 mmHg 76%
03:00 +11°C° 0 mm 1 m/s 592 mmHg 76%
04:00 +12°C° 0 mm 1 m/s 593 mmHg 74%
05:00 +12°C° 0 mm 0 m/s 593 mmHg 71%
06:00 +13°C° 0 mm 0 m/s 594 mmHg 69%
07:00 +16°C° 0 mm 1 m/s 594 mmHg 65%
08:00 +18°C° 0 mm 1 m/s 595 mmHg 61%
09:00 +20°C° 0 mm 1 m/s 595 mmHg 56%
10:00 +19°C° 0.2 mm 2 m/s 595 mmHg 58%
11:00 +19°C° 0.2 mm 2 m/s 595 mmHg 59%
12:00 +19°C° 0.2 mm 3 m/s 595 mmHg 60%
13:00 +19°C° 0.6 mm 3 m/s 595 mmHg 59%
14:00 +19°C° 0.6 mm 2 m/s 594 mmHg 59%
15:00 +19°C° 0.6 mm 2 m/s 594 mmHg 58%
16:00 +18°C° 0.2 mm 2 m/s 594 mmHg 59%
17:00 +18°C° 0.2 mm 2 m/s 594 mmHg 59%
18:00 +19°C° 0.2 mm 1 m/s 593 mmHg 60%
19:00 +16°C° 0 mm 1 m/s 593 mmHg 62%
20:00 +14°C° 0 mm 1 m/s 592 mmHg 65%
21:00 +12°C° 0 mm 1 m/s 591 mmHg 67%
22:00 +12°C° 0 mm 1 m/s 591 mmHg 69%
23:00 +11°C° 0 mm 1 m/s 591 mmHg 70%

Depois de amanhã, 6 Julho, Segunda-feira

Tempo Temperatura Precipitação Vento Pressão Humidade
00:00 +11°C° 0 mm 1 m/s 591 mmHg 71%
01:00 +11°C° 0 mm 1 m/s 591 mmHg 70%
02:00 +11°C° 0 mm 1 m/s 591 mmHg 70%
03:00 +11°C° 0 mm 1 m/s 591 mmHg 69%
04:00 +12°C° 0 mm 1 m/s 591 mmHg 67%
05:00 +13°C° 0 mm 1 m/s 592 mmHg 65%
06:00 +15°C° 0 mm 1 m/s 593 mmHg 63%
07:00 +16°C° 0 mm 1 m/s 593 mmHg 57%
08:00 +19°C° 0 mm 1 m/s 594 mmHg 52%
09:00 +19°C° 0 mm 2 m/s 595 mmHg 46%
10:00 +20°C° 0 mm 2 m/s 595 mmHg 45%
11:00 +20°C° 0 mm 3 m/s 595 mmHg 45%
12:00 +21°C° 0 mm 3 m/s 595 mmHg 45%
13:00 +20°C° 0.1 mm 3 m/s 594 mmHg 49%
14:00 +19°C° 0.1 mm 3 m/s 594 mmHg 53%
15:00 +18°C° 0.1 mm 2 m/s 593 mmHg 58%
16:00 +18°C° 0 mm 2 m/s 593 mmHg 58%
17:00 +19°C° 0 mm 1 m/s 593 mmHg 58%
18:00 +20°C° 0 mm 1 m/s 593 mmHg 59%
19:00 +18°C° 0 mm 1 m/s 592 mmHg 62%
20:00 +15°C° 0 mm 1 m/s 592 mmHg 66%
21:00 +13°C° 0 mm 1 m/s 591 mmHg 69%
22:00 +12°C° 0 mm 1 m/s 591 mmHg 68%
23:00 +12°C° 0 mm 1 m/s 591 mmHg 67%

7 Julho, Terça-feira

Tempo Temperatura Precipitação Vento Pressão Humidade
00:00 +12°C° 0 mm 1 m/s 590 mmHg 67%
01:00 +12°C° 0 mm 1 m/s 590 mmHg 66%
02:00 +11°C° 0 mm 1 m/s 590 mmHg 66%
03:00 +11°C° 0 mm 1 m/s 590 mmHg 66%
04:00 +12°C° 0 mm 1 m/s 591 mmHg 64%
05:00 +14°C° 0 mm 1 m/s 591 mmHg 63%
06:00 +15°C° 0 mm 1 m/s 592 mmHg 62%
07:00 +18°C° 0 mm 1 m/s 593 mmHg 56%
08:00 +19°C° 0 mm 1 m/s 593 mmHg 49%
09:00 +20°C° 0 mm 2 m/s 594 mmHg 43%
10:00 +21°C° 0 mm 2 m/s 594 mmHg 42%
11:00 +21°C° 0 mm 2 m/s 594 mmHg 42%
12:00 +23°C° 0 mm 2 m/s 594 mmHg 41%
13:00 +23°C° 0 mm 2 m/s 594 mmHg 41%
14:00 +23°C° 0 mm 2 m/s 594 mmHg 41%
15:00 +23°C° 0 mm 2 m/s 593 mmHg 42%
16:00 +23°C° 0 mm 2 m/s 593 mmHg 45%
17:00 +21°C° 0 mm 2 m/s 593 mmHg 49%
18:00 +20°C° 0 mm 2 m/s 592 mmHg 52%
19:00 +18°C° 0 mm 2 m/s 592 mmHg 54%
20:00 +16°C° 0 mm 2 m/s 591 mmHg 56%
21:00 +14°C° 0 mm 2 m/s 590 mmHg 57%
22:00 +14°C° 0 mm 2 m/s 590 mmHg 57%
23:00 +14°C° 0 mm 2 m/s 590 mmHg 57%

8 Julho, Quarta-feira

Tempo Temperatura Precipitação Vento Pressão Humidade
00:00 +13°C° 0 mm 2 m/s 590 mmHg 57%
01:00 +13°C° 0 mm 2 m/s 590 mmHg 57%
02:00 +13°C° 0 mm 2 m/s 590 mmHg 57%
03:00 +13°C° 0 mm 2 m/s 590 mmHg 57%
04:00 +14°C° 0 mm 2 m/s 590 mmHg 58%
05:00 +15°C° 0 mm 2 m/s 591 mmHg 58%
06:00 +16°C° 0 mm 2 m/s 591 mmHg 59%
07:00 +18°C° 0 mm 2 m/s 592 mmHg 54%
08:00 +20°C° 0 mm 2 m/s 593 mmHg 49%
09:00 +23°C° 0 mm 2 m/s 593 mmHg 44%
10:00 +24°C° 0 mm 2 m/s 594 mmHg 44%
11:00 +24°C° 0 mm 2 m/s 594 mmHg 44%
12:00 +25°C° 0 mm 2 m/s 594 mmHg 43%
13:00 +25°C° 0.2 mm 2 m/s 594 mmHg 44%
14:00 +25°C° 0.2 mm 2 m/s 593 mmHg 44%
15:00 +25°C° 0.2 mm 2 m/s 593 mmHg 44%
16:00 +24°C° 0 mm 2 m/s 593 mmHg 47%
17:00 +23°C° 0 mm 2 m/s 592 mmHg 51%
18:00 +23°C° 0 mm 2 m/s 592 mmHg 54%
19:00 +19°C° 0 mm 2 m/s 591 mmHg 56%
20:00 +17°C° 0 mm 2 m/s 591 mmHg 59%
21:00 +15°C° 0 mm 2 m/s 590 mmHg 61%
22:00 +15°C° 0 mm 2 m/s 591 mmHg 59%
23:00 +15°C° 0 mm 1 m/s 591 mmHg 58%

9 Julho, Quinta-feira

Tempo Temperatura Precipitação Vento Pressão Humidade
00:00 +16°C° 0 mm 1 m/s 591 mmHg 56%
01:00 +15°C° 0 mm 1 m/s 591 mmHg 57%
02:00 +15°C° 0 mm 1 m/s 591 mmHg 58%
03:00 +14°C° 0 mm 1 m/s 590 mmHg 59%
04:00 +15°C° 0 mm 1 m/s 591 mmHg 60%
05:00 +16°C° 0 mm 1 m/s 592 mmHg 60%
06:00 +18°C° 0 mm 1 m/s 592 mmHg 61%
07:00 +20°C° 0 mm 1 m/s 593 mmHg 58%
08:00 +20°C° 0 mm 2 m/s 594 mmHg 56%
09:00 +21°C° 0 mm 2 m/s 594 mmHg 53%
10:00 +21°C° 1.1 mm 2 m/s 594 mmHg 54%
11:00 +21°C° 1.1 mm 3 m/s 594 mmHg 56%
12:00 +22°C° 1.1 mm 3 m/s 594 mmHg 57%
13:00 +21°C° 1.7 mm 3 m/s 594 mmHg 61%
14:00 +20°C° 1.7 mm 3 m/s 594 mmHg 65%
15:00 +20°C° 1.7 mm 3 m/s 593 mmHg 70%
16:00 +19°C° 1.6 mm 2 m/s 593 mmHg 73%
17:00 +18°C° 1.6 mm 2 m/s 593 mmHg 77%
18:00 +19°C° 1.6 mm 1 m/s 592 mmHg 80%
19:00 +16°C° 0.4 mm 1 m/s 593 mmHg 82%
20:00 +15°C° 0.4 mm 1 m/s 593 mmHg 83%
21:00 +14°C° 0.4 mm 1 m/s 593 mmHg 85%
22:00 +14°C° 0.2 mm 1 m/s 593 mmHg 87%
23:00 +14°C° 0.2 mm 1 m/s 593 mmHg 88%
Mostrar mais